Weather reports worldwide

Advertisment
Gemini, Netherlands (6214): temperature & dewpoint: 09.08.2020 21:00:00 - 15.08.2020 21:00:00 (CEST)Gemini, Netherlands (6214): wind speed & gusts: 09.08.2020 21:00:00 - 15.08.2020 21:00:00 (CEST)Gemini, Netherlands (6214): wind direction: 09.08.2020 21:00:00 - 15.08.2020 21:00:00 (CEST)Gemini, Netherlands (6214): reduced air pressure: 09.08.2020 21:00:00 - 15.08.2020 21:00:00 (CEST)Gemini, Netherlands (6214): visibility: 09.08.2020 21:00:00 - 15.08.2020 21:00:00 (CEST)
Date & Time tt [°C] td [°C] ff [km/h] ff [kn] fx [km/h] fx [kn] dd ppp [hPa] vv [km]
15.08.2020 21:00:00 19,2 17,2 24 13 25 14 ENE 1015,5 10
15.08.2020 20:00:00 19,3 17,2 28 15 29 16 ENE 1015,3 10
15.08.2020 19:00:00 19,4 17,3 24 13 29 16 ENE 1015,3 10
15.08.2020 18:00:00 19,4 17,5 28 15 29 16 ENE 1015,5 10
15.08.2020 17:00:00 19,3 17,5 24 13 29 16 ENE 1015,7 10
15.08.2020 16:00:00 19,4 17,4 28 15 29 16 ENE 1016,0 10
15.08.2020 15:00:00 19,5 17,5 26 14 29 16 ENE 1016,3 10
15.08.2020 14:00:00 19,5 17,3 28 15 29 16 ENE 1016,3 10
15.08.2020 13:00:00 19,4 17,4 28 15 32 18 ENE 1016,3 10
15.08.2020 12:00:00 19,2 17,3 31 17 32 18 E 1016,1 10
15.08.2020 11:00:00 19,3 17,2 31 17 36 19 ENE 1016,1 10
15.08.2020 10:00:00 19,2 17,3 29 16 36 19 ENE 1015,9 10
15.08.2020 09:00:00 19,1 17,5 25 14 32 18 ENE 1015,7 16
15.08.2020 08:00:00 19,1 17,5 34 18 36 19 ENE 1015,3 10
15.08.2020 07:00:00 19,3 18,0 34 18 32 18 ENE 1014,9 10
15.08.2020 06:00:00 19,5 18,2 31 17 32 18 ENE 1014,6 10
15.08.2020 05:00:00 19,8 17,7 22 12 25 14 ENE 1014,6 10
15.08.2020 04:00:00 19,9 17,3 24 13 25 14 ENE 1014,7 10
15.08.2020 03:00:00 20,0 17,4 21 11 25 14 ENE 1015,0 10
15.08.2020 02:00:00 20,1 17,4 22 12 29 16 ENE 1015,0 10
15.08.2020 01:00:00 20,1 17,6 24 13 25 14 ENE 1015,1 10
15.08.2020 00:00:00 20,2 17,5 24 13 32 18 ENE 1014,9 10
14.08.2020 23:00:00 20,4 16,8 28 15 32 18 ENE 1014,5 10
14.08.2020 22:00:00 20,5 16,0 26 14 29 16 ENE 1014,4 10
14.08.2020 21:00:00 20,6 15,7 21 11 25 14 ENE 1014,2 10
14.08.2020 20:00:00 20,2 17,1 22 12 25 14 ENE 1013,9 10
14.08.2020 19:00:00 20,1 17,3 18 10 22 12 ENE 1013,5 10
14.08.2020 18:00:00 19,9 17,4 21 11 22 12 ENE 1013,5 10
14.08.2020 17:00:00 19,7 17,5 18 10 22 12 ENE 1013,3 10
14.08.2020 16:00:00 19,7 17,2 16 9 22 12 - 1013,6 10
14.08.2020 15:00:00 19,6 17,0 15 8 22 12 E 1013,6 10
14.08.2020 14:00:00 19,9 17,1 15 8 18 10 - 1013,8 10
14.08.2020 13:00:00 19,7 17,2 16 9 22 12 E 1013,6 10
14.08.2020 12:00:00 19,6 17,0 21 11 22 12 E 1013,4 10
14.08.2020 11:00:00 19,8 17,0 15 8 22 12 E 1013,3 10
14.08.2020 10:00:00 19,7 17,0 18 10 25 14 E 1013,4 10
14.08.2020 09:00:00 19,9 17,0 18 10 22 12 E 1013,3 10
14.08.2020 08:00:00 20,0 16,9 16 9 22 12 E 1013,0 10
14.08.2020 07:00:00 20,1 16,7 26 14 29 16 E 1012,7 10
14.08.2020 06:00:00 20,1 16,3 22 12 29 16 E 1012,3 10
14.08.2020 05:00:00 20,1 16,6 28 15 29 16 E 1012,1 10
14.08.2020 04:00:00 20,3 16,2 24 13 29 16 E 1012,4 10
14.08.2020 03:00:00 21,1 15,4 26 14 29 16 E 1012,7 10
14.08.2020 02:00:00 20,7 16,3 26 14 29 16 E 1013,0 10
14.08.2020 01:00:00 21,4 15,2 26 14 29 16 E 1013,3 10
14.08.2020 00:00:00 21,4 15,4 31 17 40 21 E 1013,6 10
13.08.2020 23:00:00 22,0 15,6 37 20 40 21 E 1013,2 10
13.08.2020 22:00:00 22,1 15,8 35 19 36 19 E 1012,9 10
13.08.2020 21:00:00 22,1 16,5 26 14 36 19 - 1012,9 10
13.08.2020 20:00:00 23,0 15,8 31 17 36 19 E 1012,8 10
13.08.2020 19:00:00 23,0 16,1 31 17 36 19 E 1012,7 10
13.08.2020 18:00:00 23,1 15,9 29 16 36 19 E 1012,9 10
13.08.2020 17:00:00 22,5 16,9 31 17 36 19 E 1013,4 10
13.08.2020 16:00:00 21,9 16,6 26 14 29 16 E 1013,5 10
13.08.2020 15:00:00 21,2 17,3 13 7 25 14 - 1014,0 10
13.08.2020 14:00:00 21,0 16,7 24 13 25 14 E 1013,9 10
13.08.2020 13:00:00 21,1 16,5 18 10 22 12 E 1014,1 10
13.08.2020 12:00:00 20,7 16,3 24 13 25 14 ESE 1014,0 10
13.08.2020 11:00:00 21,2 16,5 22 12 29 16 E 1014,0 10
13.08.2020 10:00:00 21,3 16,2 21 11 25 14 ESE 1014,0 10
13.08.2020 09:00:00 21,3 16,0 28 15 29 16 ESE 1014,0 10
13.08.2020 08:00:00 21,4 15,9 24 13 32 18 ESE 1013,7 10
13.08.2020 07:00:00 21,2 16,4 29 16 32 18 ESE 1013,6 10
13.08.2020 06:00:00 21,2 16,4 29 16 32 18 ESE 1013,4 10
13.08.2020 05:00:00 21,3 16,6 31 17 32 18 ESE 1013,5 10
13.08.2020 04:00:00 21,3 16,9 31 17 36 19 ESE 1013,4 10
13.08.2020 03:00:00 21,8 16,9 31 17 36 19 ESE 1013,8 10
13.08.2020 02:00:00 22,0 17,0 28 15 36 19 ESE 1014,3 10
13.08.2020 01:00:00 22,2 17,3 34 18 40 21 ESE 1014,7 10
13.08.2020 00:00:00 22,5 17,8 41 22 43 23 ESE 1014,8 10
12.08.2020 23:00:00 22,5 18,2 41 22 43 23 ESE 1014,8 10
12.08.2020 22:00:00 23,1 18,1 44 24 40 21 ESE 1014,7 10
12.08.2020 21:00:00 22,8 17,9 39 21 36 19 E 1014,5 10
12.08.2020 20:00:00 23,5 17,2 37 20 36 19 E 1014,5 10
12.08.2020 19:00:00 24,4 17,0 35 19 36 19 E 1014,7 10
12.08.2020 18:00:00 23,8 17,7 29 16 32 18 E 1015,3 10
12.08.2020 17:00:00 23,0 17,8 28 15 29 16 E 1015,8 10
12.08.2020 16:00:00 21,9 17,6 29 16 32 18 E 1016,1 10
12.08.2020 15:00:00 21,5 17,5 24 13 29 16 E 1016,4 10
12.08.2020 14:00:00 21,2 17,1 26 14 29 16 E 1016,8 10
12.08.2020 13:00:00 21,1 16,9 22 12 25 14 ESE 1016,9 10
12.08.2020 12:00:00 21,0 16,7 22 12 29 16 ESE 1017,0 10
12.08.2020 11:00:00 21,3 16,2 28 15 29 16 ESE 1016,9 10
12.08.2020 10:00:00 21,3 16,3 22 12 25 14 SE 1017,0 10
12.08.2020 09:00:00 21,4 16,0 24 13 36 19 SE 1016,8 10
12.08.2020 08:00:00 21,6 16,1 28 15 36 19 SE 1016,6 10
12.08.2020 07:00:00 21,5 16,4 29 16 36 19 SE 1016,6 45
12.08.2020 06:00:00 21,4 16,8 31 17 40 21 SE 1016,6 10
12.08.2020 05:00:00 21,4 17,1 39 21 40 21 ESE 1016,3 10
12.08.2020 04:00:00 21,7 17,3 37 20 40 21 ESE 1016,5 10
12.08.2020 03:00:00 21,4 17,6 39 21 43 23 ESE 1016,8 10
12.08.2020 02:00:00 21,8 17,6 46 25 47 25 ESE 1016,9 10
12.08.2020 01:00:00 21,9 17,8 36 19 43 23 ESE 1017,2 33
12.08.2020 00:00:00 21,9 18,2 44 24 47 25 ESE 1017,3 10
11.08.2020 23:00:00 22,2 18,6 48 26 47 25 ESE 1017,2 10
11.08.2020 22:00:00 22,5 18,7 44 24 47 25 E 1016,8 10
11.08.2020 21:00:00 22,9 18,7 52 28 47 25 E 1016,5 10
11.08.2020 20:00:00 22,7 17,9 48 26 43 23 E 1016,6 10
11.08.2020 19:00:00 22,9 18,0 48 26 43 23 E 1016,6 10
11.08.2020 18:00:00 22,8 18,3 41 22 43 23 E 1017,0 10
11.08.2020 17:00:00 21,9 18,5 44 24 43 23 E 1017,4 10
11.08.2020 16:00:00 21,9 18,2 37 20 40 21 E 1017,8 10
11.08.2020 15:00:00 21,4 18,1 34 18 36 19 E 1018,2 10
11.08.2020 14:00:00 21,0 18,1 29 16 32 18 E 1018,7 10
11.08.2020 13:00:00 20,9 17,7 16 9 25 14 - 1018,8 10
11.08.2020 12:00:00 21,1 18,2 18 10 - - E 1019,0 10
11.08.2020 11:00:00 21,5 18,1 - - - - - 1018,9 10
11.08.2020 10:00:00 21,6 18,0 - - - - - 1018,8 10
11.08.2020 09:00:00 21,4 17,8 24 13 29 16 E 1018,5 10
11.08.2020 08:00:00 21,8 17,5 18 10 25 14 ESE 1018,4 10
11.08.2020 07:00:00 21,2 17,8 24 13 29 16 E 1018,2 10
11.08.2020 06:00:00 21,9 17,7 24 13 25 14 E 1017,9 10
11.08.2020 05:00:00 22,0 18,3 21 11 29 16 ESE 1018,2 10
11.08.2020 04:00:00 21,7 18,3 22 12 25 14 ESE 1018,0 10
11.08.2020 03:00:00 22,2 18,4 18 10 29 16 E 1018,1 33
11.08.2020 02:00:00 22,4 18,4 22 12 29 16 E 1018,0 10
11.08.2020 01:00:00 22,3 18,4 24 13 29 16 E 1018,1 10
11.08.2020 00:00:00 23,1 18,1 29 16 36 19 E 1018,1 10
10.08.2020 23:00:00 23,5 17,8 39 21 36 19 E 1017,7 10
10.08.2020 22:00:00 23,6 17,9 28 15 36 19 - 1017,4 10
10.08.2020 21:00:00 22,1 18,3 18 10 29 16 - 1017,1 10
10.08.2020 20:00:00 21,4 18,4 22 12 29 16 E 1016,9 10
10.08.2020 19:00:00 21,4 18,2 18 10 29 16 E 1017,0 10
10.08.2020 18:00:00 21,1 18,0 22 12 25 14 ENE 1017,2 10
10.08.2020 17:00:00 21,5 17,9 21 11 25 14 E 1017,5 10
10.08.2020 16:00:00 20,9 17,9 15 8 29 16 - 1017,6 10
10.08.2020 15:00:00 20,7 17,5 15 8 29 16 - 1018,2 10
10.08.2020 14:00:00 20,7 17,2 22 12 32 18 - 1018,2 10
10.08.2020 13:00:00 20,8 17,2 24 13 29 16 E 1018,2 10
10.08.2020 12:00:00 20,6 17,5 28 15 29 16 E 1018,1 10
10.08.2020 11:00:00 21,0 17,2 18 10 25 14 - 1017,9 10
10.08.2020 10:00:00 21,1 16,9 24 13 29 16 E 1017,8 10
10.08.2020 09:00:00 21,1 16,6 28 15 29 16 E 1017,7 10
10.08.2020 08:00:00 20,8 17,0 16 9 29 16 - 1017,6 10
10.08.2020 07:00:00 20,4 17,1 16 9 29 16 - 1017,7 10
10.08.2020 06:00:00 20,0 17,2 22 12 32 18 E 1017,7 10
10.08.2020 05:00:00 19,7 17,4 22 12 32 18 ENE 1018,0 29
10.08.2020 04:00:00 19,4 17,2 29 16 32 18 ENE 1018,2 10
10.08.2020 03:00:00 19,5 17,0 24 13 29 16 ENE 1018,5 10
10.08.2020 02:00:00 19,7 16,1 28 15 32 18 ENE 1018,5 10
10.08.2020 01:00:00 19,9 15,1 28 15 32 18 ENE 1018,9 10
10.08.2020 00:00:00 19,7 15,3 29 16 32 18 ENE 1019,3 10
09.08.2020 23:00:00 19,7 14,8 35 19 36 19 ENE 1019,0 10
09.08.2020 22:00:00 19,4 15,6 29 16 32 18 ENE 1019,4 10
09.08.2020 21:00:00 19,3 16,1 28 15 29 16 ENE 1019,4 10

tt = temperature
td = dewpoint
ff = wind speed
fx = gusts
dd = wind direction
ppp = reduced air pressure
vv = visibility

Next stations